• In Denmark
  • List of Countries
  • For 7 days
  • Water Temperature
  • Satellite Maps
  • Weather Map
  • Weather Widgets
  • user-avatar
    Login

    Hourly Weather Ahmadabad

    Today, 18 October, Thursday

    Time Temperature Precipitation Wind Pressure Humidity
    00:00 +30°C° 0 mm 1 mps 753 mmHg 37%
    01:00 +30°C° 0 mm 1 mps 753 mmHg 38%
    02:00 +30°C° 0 mm 1 mps 753 mmHg 39%
    03:00 +29°C° 0 mm 1 mps 753 mmHg 41%
    04:00 +29°C° 0 mm 1 mps 753 mmHg 43%
    05:00 +29°C° 0 mm 1 mps 754 mmHg 48%
    06:00 +30°C° 0 mm 1 mps 754 mmHg 47%
    07:00 +30°C° 0 mm 1 mps 754 mmHg 46%
    08:00 +31°C° 0 mm 1 mps 755 mmHg 46%
    09:00 +33°C° 0 mm 1 mps 755 mmHg 41%
    10:00 +35°C° 0 mm 1 mps 754 mmHg 37%
    11:00 +37°C° 0 mm 2 mps 755 mmHg 34%
    12:00 +36°C° 0 mm 1 mps 754 mmHg 32%
    13:00 +37°C° 0 mm 1 mps 753 mmHg 29%
    14:00 +39°C° 0 mm 1 mps 753 mmHg 26%
    15:00 +37°C° 0 mm 1 mps 752 mmHg 28%
    16:00 +37°C° 0 mm 1 mps 752 mmHg 29%
    17:00 +36°C° 0 mm 1 mps 752 mmHg 31%
    18:00 +35°C° 0 mm 1 mps 752 mmHg 32%
    19:00 +34°C° 0 mm 1 mps 753 mmHg 33%
    20:00 +33°C° 0 mm 1 mps 753 mmHg 35%
    21:00 +32°C° 0 mm 1 mps 753 mmHg 36%
    22:00 +32°C° 0 mm 1 mps 753 mmHg 38%
    23:00 +31°C° 0 mm 1 mps 754 mmHg 39%

    Tomorrow, 19 October, Friday

    Time Temperature Precipitation Wind Pressure Humidity
    00:00 +31°C° 0 mm 1 mps 753 mmHg 41%
    01:00 +30°C° 0 mm 1 mps 753 mmHg 42%
    02:00 +30°C° 0 mm 1 mps 753 mmHg 44%
    03:00 +30°C° 0 mm 1 mps 753 mmHg 45%
    04:00 +29°C° 0 mm 1 mps 754 mmHg 46%
    05:00 +29°C° 0 mm 1 mps 754 mmHg 47%
    06:00 +30°C° 0 mm 1 mps 754 mmHg 46%
    07:00 +31°C° 0 mm 1 mps 755 mmHg 45%
    08:00 +32°C° 0 mm 1 mps 755 mmHg 43%
    09:00 +33°C° 0 mm 1 mps 755 mmHg 39%
    10:00 +35°C° 0 mm 1 mps 755 mmHg 35%
    11:00 +36°C° 0 mm 1 mps 755 mmHg 31%
    12:00 +37°C° 0 mm 1 mps 754 mmHg 29%
    13:00 +39°C° 0 mm 1 mps 754 mmHg 27%
    14:00 +39°C° 0 mm 2 mps 753 mmHg 24%
    15:00 +39°C° 0 mm 2 mps 753 mmHg 26%
    16:00 +37°C° 0 mm 1 mps 753 mmHg 27%
    17:00 +37°C° 0 mm 1 mps 753 mmHg 28%
    18:00 +37°C° 0 mm 2 mps 753 mmHg 29%
    19:00 +35°C° 0 mm 2 mps 754 mmHg 30%
    20:00 +34°C° 0 mm 2 mps 754 mmHg 31%
    21:00 +34°C° 0 mm 2 mps 754 mmHg 32%
    22:00 +32°C° 0 mm 1 mps 755 mmHg 33%
    23:00 +31°C° 0 mm 1 mps 755 mmHg 33%

    Day after tomorrow, 20 October, Saturday

    Time Temperature Precipitation Wind Pressure Humidity
    00:00 +31°C° 0 mm 1 mps 754 mmHg 34%
    01:00 +31°C° 0 mm 1 mps 754 mmHg 35%
    02:00 +30°C° 0 mm 1 mps 754 mmHg 36%
    03:00 +30°C° 0 mm 1 mps 754 mmHg 37%
    04:00 +29°C° 0 mm 1 mps 754 mmHg 38%
    05:00 +27°C° 0 mm 0 mps 754 mmHg 39%
    06:00 +30°C° 0 mm 1 mps 755 mmHg 37%
    07:00 +31°C° 0 mm 1 mps 755 mmHg 36%
    08:00 +32°C° 0 mm 1 mps 756 mmHg 35%
    09:00 +34°C° 0 mm 1 mps 756 mmHg 31%
    10:00 +35°C° 0 mm 1 mps 756 mmHg 28%
    11:00 +37°C° 0 mm 1 mps 756 mmHg 25%
    12:00 +39°C° 0 mm 1 mps 755 mmHg 23%
    13:00 +40°C° 0 mm 1 mps 755 mmHg 21%
    14:00 +40°C° 0 mm 1 mps 754 mmHg 19%
    15:00 +40°C° 0 mm 1 mps 754 mmHg 21%
    16:00 +39°C° 0 mm 1 mps 754 mmHg 22%
    17:00 +37°C° 0 mm 1 mps 754 mmHg 23%
    18:00 +36°C° 0 mm 1 mps 754 mmHg 24%
    19:00 +35°C° 0 mm 1 mps 755 mmHg 24%
    20:00 +33°C° 0 mm 1 mps 755 mmHg 25%
    21:00 +33°C° 0 mm 1 mps 755 mmHg 25%
    22:00 +32°C° 0 mm 1 mps 755 mmHg 26%
    23:00 +32°C° 0 mm 1 mps 755 mmHg 26%

    21 October, Sunday

    Time Temperature Precipitation Wind Pressure Humidity
    00:00 +31°C° 0 mm 1 mps 755 mmHg 26%
    01:00 +30°C° 0 mm 2 mps 755 mmHg 27%
    02:00 +30°C° 0 mm 2 mps 755 mmHg 27%
    03:00 +30°C° 0 mm 2 mps 755 mmHg 26%
    04:00 +29°C° 0 mm 2 mps 755 mmHg 26%
    05:00 +29°C° 0 mm 2 mps 755 mmHg 26%
    06:00 +29°C° 0 mm 2 mps 755 mmHg 26%
    07:00 +30°C° 0 mm 2 mps 756 mmHg 26%
    08:00 +31°C° 0 mm 2 mps 757 mmHg 26%
    09:00 +34°C° 0 mm 2 mps 757 mmHg 23%
    10:00 +36°C° 0 mm 2 mps 757 mmHg 20%
    11:00 +38°C° 0 mm 3 mps 757 mmHg 17%
    12:00 +39°C° 0 mm 2 mps 756 mmHg 16%
    13:00 +40°C° 0 mm 2 mps 755 mmHg 14%
    14:00 +40°C° 0 mm 2 mps 754 mmHg 13%
    15:00 +40°C° 0 mm 2 mps 754 mmHg 14%
    16:00 +39°C° 0 mm 2 mps 754 mmHg 16%
    17:00 +38°C° 0 mm 2 mps 754 mmHg 17%
    18:00 +36°C° 0 mm 2 mps 755 mmHg 18%
    19:00 +35°C° 0 mm 2 mps 755 mmHg 18%
    20:00 +32°C° 0 mm 1 mps 755 mmHg 18%
    21:00 +32°C° 0 mm 2 mps 756 mmHg 19%
    22:00 +31°C° 0 mm 2 mps 756 mmHg 19%
    23:00 +31°C° 0 mm 2 mps 756 mmHg 20%

    22 October, Monday

    Time Temperature Precipitation Wind Pressure Humidity
    00:00 +30°C° 0 mm 2 mps 755 mmHg 20%
    01:00 +30°C° 0 mm 2 mps 755 mmHg 21%
    02:00 +29°C° 0 mm 2 mps 755 mmHg 22%
    03:00 +28°C° 0 mm 2 mps 755 mmHg 23%
    04:00 +28°C° 0 mm 2 mps 755 mmHg 23%
    05:00 +27°C° 0 mm 2 mps 755 mmHg 24%
    06:00 +28°C° 0 mm 2 mps 755 mmHg 25%
    07:00 +29°C° 0 mm 2 mps 756 mmHg 25%
    08:00 +30°C° 0 mm 2 mps 756 mmHg 25%
    09:00 +32°C° 0 mm 2 mps 756 mmHg 23%
    10:00 +34°C° 0 mm 1 mps 756 mmHg 20%
    11:00 +36°C° 0 mm 1 mps 756 mmHg 17%
    12:00 +37°C° 0 mm 1 mps 755 mmHg 16%
    13:00 +39°C° 0 mm 1 mps 755 mmHg 15%
    14:00 +40°C° 0 mm 1 mps 754 mmHg 13%
    15:00 +39°C° 0 mm 1 mps 754 mmHg 15%
    16:00 +37°C° 0 mm 1 mps 754 mmHg 17%
    17:00 +37°C° 0 mm 1 mps 753 mmHg 19%
    18:00 +35°C° 0 mm 1 mps 754 mmHg 19%
    19:00 +34°C° 0 mm 1 mps 754 mmHg 19%
    20:00 +32°C° 0 mm 1 mps 755 mmHg 19%
    21:00 +32°C° 0 mm 1 mps 755 mmHg 20%
    22:00 +31°C° 0 mm 1 mps 755 mmHg 20%
    23:00 +31°C° 0 mm 1 mps 755 mmHg 21%

    23 October, Tuesday

    Time Temperature Precipitation Wind Pressure Humidity
    00:00 +30°C° 0 mm 1 mps 754 mmHg 22%
    01:00 +30°C° 0 mm 1 mps 754 mmHg 23%
    02:00 +29°C° 0 mm 1 mps 754 mmHg 24%
    03:00 +29°C° 0 mm 1 mps 754 mmHg 24%
    04:00 +28°C° 0 mm 1 mps 754 mmHg 25%
    05:00 +28°C° 0 mm 1 mps 754 mmHg 25%
    06:00 +29°C° 0 mm 1 mps 755 mmHg 25%
    07:00 +30°C° 0 mm 1 mps 755 mmHg 25%
    08:00 +31°C° 0 mm 1 mps 756 mmHg 25%
    09:00 +33°C° 0 mm 1 mps 756 mmHg 23%
    10:00 +35°C° 0 mm 1 mps 756 mmHg 21%
    11:00 +35°C° 0 mm 0 mps 756 mmHg 19%
    12:00 +37°C° 0 mm 1 mps 755 mmHg 19%
    13:00 +39°C° 0 mm 1 mps 754 mmHg 18%
    14:00 +40°C° 0 mm 1 mps 753 mmHg 17%
    15:00 +39°C° 0 mm 1 mps 753 mmHg 19%
    16:00 +37°C° 0 mm 1 mps 753 mmHg 22%
    17:00 +37°C° 0 mm 1 mps 753 mmHg 24%
    18:00 +35°C° 0 mm 1 mps 754 mmHg 25%
    19:00 +34°C° 0 mm 1 mps 754 mmHg 26%
    20:00 +34°C° 0 mm 2 mps 755 mmHg 27%
    21:00 +32°C° 0 mm 1 mps 754 mmHg 29%
    22:00 +31°C° 0 mm 1 mps 754 mmHg 30%
    23:00 +31°C° 0 mm 1 mps 754 mmHg 32%
    Show more